Change the Weather History Date:

Friday, September 6, 2013

  Actual Average Record
Temperature  
Mean Temperature 88 °F -  
Max Temperature 104 °F 93 °F 104 °F (2008)
Min Temperature 73 °F 66 °F 53 °F (2000)
Cooling Degree Days 22    
Growing Degree Days 38 (Base 50)    
Moisture  
Dew Point 45 °F    
Average Humidity 23    
Maximum Humidity 39    
Minimum Humidity 13    
Precipitation  
Precipitation 0.00 in - - ()
Sea Level Pressure  
Sea Level Pressure 29.82 in    
Wind  
Wind Speed 8 mph (South)    
Max Wind Speed 17 mph    
Max Gust Speed 25 mph    
Visibility 10 miles    
Events      
Averages and records for this station are not official NWS values.
T = Trace of Precipitation, MM = Missing Value Source: NWS Daily Summary

Daily Weather History Graph

Daily Weather History Graph

Search for Another Location

Airport or City:

Trip Planner

Search our weather history database for the weather conditions in past years. The results will help you decide how hot, cold, wet, or windy it might be!

Date:

Astronomy

Sep. 06, 2013 Rise Set
Actual Time 6:26 AM PDT 7:10 PM PDT
Civil Twilight 6:01 AM PDT 7:36 PM PDT
Nautical Twilight 5:30 AM PDT 8:06 PM PDT
Astronomical Twilight 4:59 AM PDT 8:37 PM PDT
Moon 7:39 AM PDT (9/6) 7:42 PM PDT (9/6)
Length of Visible Light 13h 35m
Length of Day
12h 43m
New Moon, 2% of the Moon is Illuminated
Sep 6
New Moon
Sep 12
First Quarter
Sep 19
Full
Sep 26
Last Quarter
Oct 4
New

Hourly Weather History & Observations

Time (PDT) Temp. Dew Point Humidity Pressure Visibility Wind Dir Wind Speed Gust Speed Precip Events Conditions
12:56 AM 82.9 °F 46.9 °F 28% 29.86 in 10.0 mi South 9.2 mph - N/A   Unknown
1:56 AM 82.0 °F 46.9 °F 29% 29.85 in 10.0 mi SSW 10.4 mph - N/A   Unknown
2:56 AM 77.0 °F 46.0 °F 33% 29.84 in 10.0 mi Calm Calm - N/A   Unknown
3:56 AM 77.0 °F 46.9 °F 34% 29.84 in 10.0 mi SSW 5.8 mph - N/A   Unknown
4:56 AM 75.0 °F 48.0 °F 38% 29.85 in 10.0 mi SSE 5.8 mph - N/A   Unknown
5:56 AM 73.0 °F 46.9 °F 39% 29.86 in 10.0 mi Calm Calm - N/A   Clear
6:56 AM 75.0 °F 48.0 °F 38% 29.88 in 10.0 mi SSW 9.2 mph - N/A   Partly Cloudy
7:56 AM 82.0 °F 48.0 °F 30% 29.89 in 10.0 mi SSW 6.9 mph - N/A   Partly Cloudy
8:56 AM 82.0 °F 46.9 °F 29% 29.90 in 10.0 mi North 4.6 mph - N/A   Clear
9:56 AM 89.1 °F 48.0 °F 24% 29.89 in 10.0 mi ENE 4.6 mph - N/A   Clear
10:56 AM 95.0 °F 46.9 °F 19% 29.88 in 10.0 mi Variable 3.5 mph - N/A   Unknown
11:56 AM 99.0 °F 43.0 °F 15% 29.86 in 10.0 mi SE 10.4 mph - N/A   Clear
12:56 PM 100.9 °F 43.0 °F 14% 29.84 in 10.0 mi South 11.5 mph 20.7 mph N/A   Clear
1:56 PM 100.9 °F 43.0 °F 14% 29.81 in 10.0 mi SSW 10.4 mph 18.4 mph N/A   Clear
2:56 PM 102.0 °F 43.0 °F 13% 29.77 in 10.0 mi SW 12.7 mph 20.7 mph N/A   Partly Cloudy
3:56 PM 102.9 °F 43.0 °F 13% 29.75 in 10.0 mi South 13.8 mph 21.9 mph N/A   Partly Cloudy
4:56 PM 102.0 °F 43.0 °F 13% 29.74 in 10.0 mi SSE 17.3 mph 25.3 mph N/A   Partly Cloudy
5:56 PM 100.9 °F 44.1 °F 14% 29.73 in 10.0 mi South 15.0 mph 24.2 mph N/A   Partly Cloudy
6:56 PM 97.0 °F 41.0 °F 14% 29.74 in 10.0 mi West 15.0 mph - N/A   Partly Cloudy
7:56 PM 93.0 °F 42.1 °F 17% 29.76 in 10.0 mi WSW 8.1 mph - N/A   Scattered Clouds
8:56 PM 90.0 °F 42.1 °F 19% 29.79 in 10.0 mi SSW 6.9 mph - N/A   Scattered Clouds
9:56 PM 86.0 °F 41.0 °F 20% 29.80 in 10.0 mi South 9.2 mph - N/A   Partly Cloudy
10:56 PM 88.0 °F 42.1 °F 20% 29.81 in 10.0 mi SE 8.1 mph - N/A   Unknown
11:56 PM 84.0 °F 45.0 °F 25% 29.82 in 10.0 mi SSE 10.4 mph - N/A   Unknown